Regional Weather Roundup
Issued by NWS Little Rock, AR

Home | Current Version | Previous Version | Graphics & Text | Print | Product List | Glossary On
Versions: 1 2 3 4 5 6 7 8 9 10 11 12 13 14 15 16 17 18 19 20 21 22 23 24 25 26 27 28 29 30 31 32 33 34 35 36 37 38 39 40 41 42 43 44 45 46 47 48 49 50
000
ASUS44 KLZK 231705
RWRLZK

WEATHER ROUNDUP FOR ARKANSAS
NATIONAL WEATHER SERVICE LITTLE ROCK AR
1100 AM CST FRI FEB 23 2018

NOTE: "FAIR" INDICATES FEW OR NO CLOUDS BELOW 12,000 FEET WITH NO
SIGNIFICANT WEATHER AND/OR OBSTRUCTIONS TO VISIBILITY.

ARZ001-003-010-029-231800-
NORTHWEST ARKANSAS

CITY           SKY/WX    TMP DP  RH WIND       PRES   REMARKS
FAYETTEVILLE   CLOUDY    47  47 100 E3        30.23F
FORT SMITH     LGT RAIN  48  47  96 N5        30.27F
HARRISON       CLOUDY    45  45 100 E3        30.27F
BENTONVILLE    CLOUDY    45  43  93 E5        30.26F
SILOAM SPGS    CLOUDY    45  43  93 CALM      30.25F
HIGHFILL       CLOUDY    46  45  93 E8        30.25S
$$

ARZ004-005-016-231800-
NORTH CENTRAL ARKANSAS

CITY           SKY/WX    TMP DP  RH WIND       PRES   REMARKS
BATESVILLE     LGT RAIN  51  50  96 VRB3      30.30R
FLIPPIN        CLOUDY    47  44  90 E3        30.30R
MTN HOME       PTSUNNY   47  46  97 S3        30.29R
$$

ARZ040-041-231800-
WEST CENTRAL ARKANSAS

CITY           SKY/WX    TMP DP  RH WIND       PRES   REMARKS
MENA           CLOUDY    52  52 100 CALM      30.25F
MOUNT IDA      LGT RAIN  51  51 100 CALM      30.23F FOG
$$

ARZ009-017-025-026-028-231800-
NORTHEAST ARKANSAS

CITY           SKY/WX    TMP DP  RH WIND       PRES   REMARKS
JONESBORO      CLOUDY    53  52  96 NE7       30.29S
NEWPORT        LGT RAIN  51  50  96 N5        30.31S
WALNUT RIDGE   LGT RAIN  50  49  96 CALM      30.30F
BLYTHEVILLE    CLOUDY    58  58 100 NW7       30.30S
NW BLYTHEVILLE CLOUDY    55  54  94 NW8       30.30S
$$

ARZ022-023-033-042-044-231800-
CENTRAL ARKANSAS

CITY           SKY/WX    TMP DP  RH WIND       PRES   REMARKS
LITTLE ROCK    LGT RAIN  53  53 100 NW3       30.30R
N LITTLE ROCK    N/A     51  51 100 CALM      30.28R
JACKSONVILLE   LGT RAIN  53  53 100 W7        30.30R
SEARCY         LGT RAIN  53  53 100 MISG      30.31R
HOT SPRINGS    LGT RAIN  54  54 100 CALM      30.27F
RUSSELLVILLE   CLOUDY    49  48  97 CALM      30.28F
$$

ARZ036-231800-
EAST ARKANSAS

CITY           SKY/WX    TMP DP  RH WIND       PRES   REMARKS
WEST MEMPHIS   CLOUDY    60  32  34 CALM      30.28F
$$

ARZ050-053-066-070-073-231800-
SOUTHWEST ARKANSAS

CITY           SKY/WX    TMP DP  RH WIND       PRES   REMARKS
ARKADELPHIA    LGT RAIN  51  51 100 E5        30.28F FOG
CAMDEN         DRIZZLE   55  52  88 CALM      30.28F
TEXARKANA      CLOUDY    54  54 100 E3        30.24F
EL DORADO      CLOUDY    56  56 100 N5        30.28F
DE QUEEN       CLOUDY    52  52 100 E7        30.21F
$$

ARZ056-057-069-231800-
SOUTHEAST ARKANSAS

CITY           SKY/WX    TMP DP  RH WIND       PRES   REMARKS
PINE BLUFF     CLOUDY    54  54 100 SW5       30.30R
STUTTGART      CLOUDY    54  53  97 W3        30.31R
MONTICELLO     CLOUDY    61  57  87 NE3       30.28S

$$





USA.gov is the U.S. government's official web portal to all federal, state and local government web resources and services.